Погода в Левченко

Россия / Республика Татарстан     55°50′28″N   49°01′47″E
темп.,
°C
ветер,
м/с
пор.,
м/с
влажн.,
%
обл.,
%
осадки,
мм/ч
давл.,
гПа
погр.,
м
14 июня, пн
пн1400:00+16ю388944 0.0 1013204
03:00+15ю2489100 0.0 101478
06:00+18ю248296 0.0 1015200
09:00+22ююз3470100 0.0 1015662
12:00+24зюз3462100 0.0 10151081
15:00+25зюз3458100 0.0 10151292
18:00+22з3575100 0.2 1014404
21:00+19зюз1184100 0.3 101411
15 июня, вт
вт1500:00+18зсз118617 0.2 101412
03:00+16зсз118891 0.2 101411
06:00+19ююз018085 0.3 1015147
09:00+23ю1166100 0.3 1015693
12:00+25ю2255100 0.0 10141204
15:00+22ююв4673100 0.0 1014314
18:00+23юв346787 0.0 1013363
21:00+19юв228793 0.6 101333
16 июня, ср
ср1600:00+18в359099 0.0 1011100
03:00+17в399273 0.0 1010173
06:00+20в4108072 0.0 1008285
09:00+23юв466224 0.0 1007600
12:00+27ю565661 0.0 10061214
15:00+27ююз545514 0.0 10061570
18:00+25зюз5768100 0.7 1005522
21:00+17сз51283100 2.9 1008499
17 июня, чт
чт1700:00+16ссз7138613 0.1 1011673
03:00+12ссз513800 0.1 1014464
06:00+14ссз51075100 0.0 1015427
09:00+19ссз610505 0.0 10161526
12:00+21ссз68412 0.0 10172151
15:00+21ссз584032 0.0 10172383
18:00+18с375193 0.0 1019489
21:00+16ссз36595 0.0 1020209
18 июня, пт
пт1800:00+13сз23705 0.0 102165
03:00+12сз237611 0.0 102376
06:00+15с37655 0.0 1024359
09:00+18с57481 0.0 10251645
12:00+20с57405 0.0 10251871
15:00+21с464045 0.0 10251956
18:00+21с245067 0.0 1025663
21:00+16юз126073 0.0 102513